FW6030 Weather Reports


time (UTC)temp
C
wind
direction
speed
KPH
gust
KPH
rain 1hr
cm
rain 24hr
cm
rain mn
cm
humidity
%
barometer
mb
20260503230727 24 360 19.3 29.0 0.00 0.00 0.00 40 1018.2
20260503230627 24 360 19.3 29.0 0.00 0.00 0.00 40 1018.3
20260503230528 24 360 19.3 29.0 0.00 0.00 0.00 39 1018.2
20260503230448 24 360 19.3 33.8 0.00 0.00 0.00 39 1018.2
20260503230348 24 360 17.7 33.8 0.00 0.00 0.00 40 1018.2
20260503230248 24 360 16.1 33.8 0.00 0.00 0.00 40 1018.2
20260503230132 24 360 14.5 33.8 0.00 0.00 0.00 40 1018.1
20260503230031 24 360 14.5 33.8 0.00 0.00 0.00 39 1018.1
20260503225932 24 360 14.5 33.8 0.00 0.00 0.00 40 1018.1
20260503225832 24 360 14.5 33.8 0.00 0.00 0.00 40 1018.1
20260503225733 24 360 14.5 33.8 0.00 0.00 0.00 39 1018.2
20260503225633 24 360 14.5 33.8 0.00 0.00 0.00 39 1018.1
20260503225518 24 360 14.5 33.8 0.00 0.00 0.00 39 1018.2
20260503225418 24 360 16.1 33.8 0.00 0.00 0.00 39 1018.2
20260503225318 24 360 16.1 30.6 0.00 0.00 0.00 39 1018.2
20260503225219 24 360 16.1 30.6 0.00 0.00 0.00 39 1018.2
20260503225119 24 360 16.1 30.6 0.00 0.00 0.00 39 1018.2
20260503225040 24 360 14.5 30.6 0.00 0.00 0.00 38 1018.2
20260503224920 24 360 16.1 30.6 0.00 0.00 0.00 38 1018.2
20260503224843 24 360 17.7 30.6 0.00 0.00 0.00 39 1018.2
20260503224723 24 360 16.1 29.0 0.00 0.00 0.00 39 1018.2
20260503224623 25 360 16.1 29.0 0.00 0.00 0.00 39 1018.3
20260503224544 24 360 14.5 29.0 0.00 0.00 0.00 39 1018.3
20260503224423 24 360 14.5 29.0 0.00 0.00 0.00 39 1018.4
20260503224323 24 360 14.5 29.0 0.00 0.00 0.00 39 1018.4
20260503224224 25 360 14.5 29.0 0.00 0.00 0.00 39 1018.5
20260503224130 25 360 12.9 29.0 0.00 0.00 0.00 39 1018.5
20260503224029 25 360 12.9 27.4 0.00 0.00 0.00 39 1018.4
20260503223930 25 360 12.9 27.4 0.00 0.00 0.00 39 1018.4
20260503223830 25 360 14.5 30.6 0.00 0.00 0.00 39 1018.4
20260503223731 25 360 16.1 30.6 0.00 0.00 0.00 39 1018.4
20260503223631 25 360 16.1 30.6 0.00 0.00 0.00 39 1018.5
20260503223532 25 360 17.7 30.6 0.00 0.00 0.00 39 1018.5
20260503223416 25 360 17.7 30.6 0.00 0.00 0.00 39 1018.5
20260503223336 25 360 17.7 30.6 0.00 0.00 0.00 39 1018.5
20260503223216 25 360 526.3 30.6 0.00 0.00 0.00 39 1018.6
20260503223116 25 360 526.3 30.6 0.00 0.00 0.00 38 1018.6
20260503223017 25 360 526.3 30.6 0.00 0.00 0.00 38 1018.7
20260503222918 25 360 526.3 24.1 0.00 0.00 0.00 38 1018.6
20260503222823 25 360 526.3 24.1 0.00 0.00 0.00 38 1018.7
20260503222723 25 360 526.3 24.1 0.00 0.00 0.00 38 1018.7
20260503222622 25 360 526.3 24.1 0.00 0.00 0.00 1018.6
20260503222523 25 360 526.3 24.1 0.00 0.00 0.00 1018.6
20260503222427 25 360 526.3 24.1 0.00 0.00 0.00 1018.8
20260503222324 -17 0.0 0.0 0.00 0.00 0.00 1018.7
20260503222226 -17 0.0 0.0 0.00 0.00 0.00 1018.8
20260503222114 -17 0.0 0.0 0.00 0.00 0.00 1018.7
20260503222017 -17 0.0 0.0 0.00 0.00 0.00 1018.6
20260503221940 -17 0.0 0.0 0.00 0.00 0.00 1018.7
20260503221822 -17 0.0 0.0 0.00 0.00 0.00 1018.7
20260503221747 -17 0.0 0.0 0.00 0.00 0.00 1018.8
20260503221629 -17 0.0 0.0 0.00 0.00 0.00 1018.7
20260503221515 -17 0.0 0.0 0.00 0.00 0.00 1018.8
20260503221419 -17 0.0 0.0 0.00 0.00 0.00 1018.7
20260503221322 -17 0.0 0.0 0.00 0.00 0.00 1018.7
20260503221225 -17 0.0 0.0 0.00 0.00 0.00 1018.7
20260503221128 -17 0.0 0.0 0.00 0.00 0.00 1018.8
20260503221031 -17 0.0 0.0 0.00 0.00 0.00 1018.8
20260503220935 -17 0.0 0.0 0.00 0.00 0.00 1018.8
20260503220903 -17 0.0 0.0 0.00 0.00 0.00 1018.9
20260503220828 -17 0.0 0.0 0.00 0.00 0.00 1018.8
20260503220731 -17 0.0 0.0 0.00 0.00 0.00 1018.8
20260503220558 -17 0.0 0.0 0.00 0.00 0.00 1018.9
20260503220413 -17 0.0 0.0 0.00 0.00 0.00 1019.0
20260503220316 -17 0.0 0.0 0.00 0.00 0.00 1019.0
20260503220220 -17 0.0 0.0 0.00 0.00 0.00 1019.0
20260503220124 -17 0.0 0.0 0.00 0.00 0.00 1019.0
20260503220029 -17 0.0 0.0 0.00 0.00 0.00 1019.0
20260503215913 -17 0.0 0.0 0.00 0.00 0.00 1019.1
20260503215838 -17 0.0 0.0 0.00 0.00 0.00 1019.1
20260503215720 -17 0.0 0.0 0.00 0.00 0.00 1019.1
20260503215622 -17 0.0 0.0 0.00 0.00 0.00 1019.1
20260503215526 -17 0.0 0.0 0.00 0.00 0.00 1019.1
20260503215413 -17 0.0 0.0 0.00 0.00 0.00 1019.1
20260503215317 -17 0.0 0.0 0.00 0.00 0.00 1019.2
20260503215221 -17 0.0 0.0 0.00 0.00 0.00 1019.1
20260503215125 -17 0.0 0.0 0.00 0.00 0.00 1019.1
20260503215028 -17 0.0 0.0 0.00 0.00 0.00 1019.2
20260503214932 -17 0.0 0.0 0.00 0.00 0.00 1019.1
20260503214814 -17 0.0 0.0 0.00 0.00 0.00 1019.2
20260503214722 -17 0.0 0.0 0.00 0.00 0.00 1019.2
20260503214626 -17 0.0 0.0 0.00 0.00 0.00 1019.1
20260503214529 -17 0.0 0.0 0.00 0.00 0.00 1019.1
20260503214432 -17 0.0 0.0 0.00 0.00 0.00 1019.1
20260503214316 -17 0.0 0.0 0.00 0.00 0.00 1018.9
20260503214220 -17 0.0 0.0 0.00 0.00 0.00 1019.1
20260503214127 -17 0.0 0.0 0.00 0.00 0.00 1019.1
20260503214051 -17 0.0 0.0 0.00 0.00 0.00 1019.1
20260503213933 -17 0.0 0.0 0.00 0.00 0.00 1019.1
20260503213816 -17 0.0 0.0 0.00 0.00 0.00 1019.3
20260503213719 -17 0.0 0.0 0.00 0.00 0.00 1019.3
20260503213643 -17 0.0 0.0 0.00 0.00 0.00 1019.3
20260503213526 -17 0.0 0.0 0.00 0.00 0.00 1019.3
20260503213413 -17 0.0 0.0 0.00 0.00 0.00 1019.3
20260503213317 -17 0.0 0.0 0.00 0.00 0.00 1019.3
20260503213221 -17 0.0 0.0 0.00 0.00 0.00 1019.4
20260503213144 -17 0.0 0.0 0.00 0.00 0.00 1019.4
20260503213014 -17 0.0 0.0 0.00 0.00 0.00 1019.3
20260503212916 -17 0.0 0.0 0.00 0.00 0.00 1019.4
20260503212839 -17 0.0 0.0 0.00 0.00 0.00 1019.4
20260503212728 -17 0.0 0.0 0.00 0.00 0.00 1019.4
20260503212630 -17 0.0 0.0 0.00 0.00 0.00 1019.4
20260503212535 -17 0.0 0.0 0.00 0.00 0.00 1019.5
20260503212459 -17 0.0 0.0 0.00 0.00 0.00 1019.4
20260503212340 -17 0.0 0.0 0.00 0.00 0.00 1019.4
20260503212215 -17 0.0 0.0 0.00 0.00 0.00 1019.5
20260503212119 -17 0.0 0.0 0.00 0.00 0.00 1019.6
20260503212027 -17 0.0 0.0 0.00 0.00 0.00 1019.6
20260503211929 -17 0.0 0.0 0.00 0.00 0.00 1019.5
20260503211853 -17 0.0 0.0 0.00 0.00 0.00 1019.5
20260503211756 -17 0.0 0.0 0.00 0.00 0.00 1019.6
20260503211659 -17 0.0 0.0 0.00 0.00 0.00 1019.5
20260503211513 -17 0.0 0.0 0.00 0.00 0.00 1019.6
20260503211417 -17 0.0 0.0 0.00 0.00 0.00 1019.7
20260503211320 -17 0.0 0.0 0.00 0.00 0.00 1019.7
20260503211228 -17 0.0 0.0 0.00 0.00 0.00 1019.7
20260503211130 -17 0.0 0.0 0.00 0.00 0.00 1019.7
20260503211014 -17 0.0 0.0 0.00 0.00 0.00 1019.7
20260503210916 -17 0.0 0.0 0.00 0.00 0.00 1019.7
20260503210820 -17 0.0 0.0 0.00 0.00 0.00 1019.8
20260503210724 -17 0.0 0.0 0.00 0.00 0.00 1019.8
20260503210631 -17 0.0 0.0 0.00 0.00 0.00 1019.8
20260503210515 -17 0.0 0.0 0.00 0.00 0.00 1019.9
20260503210419 -17 0.0 0.0 0.00 0.00 0.00 1019.9
20260503210321 -17 0.0 0.0 0.00 0.00 0.00 1019.9
20260503210224 -17 0.0 0.0 0.00 0.00 0.00 1019.9
20260503210128 -17 0.0 0.0 0.00 0.00 0.00 1019.9
20260503210036 -17 0.0 0.0 0.00 0.00 0.00 1019.9
20260503210000 -17 0.0 0.0 0.00 0.00 0.00 1019.9
20260503205836 -17 0.0 0.0 0.00 0.00 0.00 1020.0
20260503205740 -17 0.0 0.0 0.00 0.00 0.00 1020.0
20260503205615 -17 0.0 0.0 0.00 0.00 0.00 1020.1
20260503205539 -17 0.0 0.0 0.00 0.00 0.00 1020.2
20260503205420 -17 0.0 0.0 0.00 0.00 0.00 1020.2
20260503205328 -17 0.0 0.0 0.00 0.00 0.00 1020.2
20260503205231 -17 0.0 0.0 0.00 0.00 0.00 1020.3
20260503205155 -17 0.0 0.0 0.00 0.00 0.00 1020.2
20260503205058 -17 0.0 0.0 0.00 0.00 0.00 1020.2
20260503204913 -17 0.0 0.0 0.00 0.00 0.00 1020.2
20260503204816 -17 0.0 0.0 0.00 0.00 0.00 1020.3
20260503204721 -17 0.0 0.0 0.00 0.00 0.00 1020.2
20260503204628 -17 0.0 0.0 0.00 0.00 0.00 1020.2
20260503204531 -17 0.0 0.0 0.00 0.00 0.00 1020.3
20260503204454 -17 0.0 0.0 0.00 0.00 0.00 1020.2
20260503204357 -17 0.0 0.0 0.00 0.00 0.00 1020.2
20260503204300 -17 0.0 0.0 0.00 0.00 0.00 1020.3
20260503204029 -17 0.0 0.0 0.00 0.00 0.00 1020.2
20260503203931 -17 0.0 0.0 0.00 0.00 0.00 1020.3
20260503203819 -17 0.0 0.0 0.00 0.00 0.00 1020.3
20260503203724 -17 0.0 0.0 0.00 0.00 0.00 1020.3
20260503203626 -17 0.0 0.0 0.00 0.00 0.00 1020.4
20260503203530 -17 0.0 0.0 0.00 0.00 0.00 1020.2
20260503203432 -17 0.0 0.0 0.00 0.00 0.00 1020.4
20260503203316 -17 0.0 0.0 0.00 0.00 0.00 1020.5
20260503203224 -17 0.0 0.0 0.00 0.00 0.00 1020.5
20260503203147 -17 0.0 0.0 0.00 0.00 0.00 1020.5
20260503203030 -17 0.0 0.0 0.00 0.00 0.00 1020.6
20260503202914 -17 0.0 0.0 0.00 0.00 0.00 1020.5
20260503202839 -17 0.0 0.0 0.00 0.00 0.00 1020.6
20260503202720 -17 0.0 0.0 0.00 0.00 0.00 1020.6
20260503202623 -17 0.0 0.0 0.00 0.00 0.00 1020.6
20260503202531 -17 0.0 0.0 0.00 0.00 0.00 1020.7
20260503202435 -17 0.0 0.0 0.00 0.00 0.00 1020.6
20260503202332 -17 0.0 0.0 0.00 0.00 0.00 1020.7
20260503202215 -17 0.0 0.0 0.00 0.00 0.00 1020.7
20260503202119 -17 0.0 0.0 0.00 0.00 0.00 1020.7
20260503202021 -17 0.0 0.0 0.00 0.00 0.00 1020.7
20260503201929 -17 0.0 0.0 0.00 0.00 0.00 1020.7
20260503201813 -17 0.0 0.0 0.00 0.00 0.00 1020.7
20260503201716 -17 0.0 0.0 0.00 0.00 0.00 1020.7
20260503201620 -17 0.0 0.0 0.00 0.00 0.00 1020.7
20260503201524 -17 0.0 0.0 0.00 0.00 0.00 1020.7
20260503201426 -17 0.0 0.0 0.00 0.00 0.00 1020.8
20260503201314 -17 0.0 0.0 0.00 0.00 0.00 1020.7
20260503201217 -17 0.0 0.0 0.00 0.00 0.00 1020.8
20260503201141 -17 0.0 0.0 0.00 0.00 0.00 1020.8
20260503201024 -17 0.0 0.0 0.00 0.00 0.00 1020.8
20260503200927 -17 0.0 0.0 0.00 0.00 0.00 1020.8
20260503200831 -17 0.0 0.0 0.00 0.00 0.00 1020.7
20260503200713 -17 0.0 0.0 0.00 0.00 0.00 1020.7
20260503200613 -17 0.0 0.0 0.00 0.00 0.00 1020.7
20260503200537 -17 0.0 0.0 0.00 0.00 0.00 1020.7
20260503200413 -17 0.0 0.0 0.00 0.00 0.00 1020.7
20260503200337 -17 0.0 0.0 0.00 0.00 0.00 1020.7
20260503200213 -17 0.0 0.0 0.00 0.00 0.00 1020.8
20260503200117 -17 0.0 0.0 0.00 0.00 0.00 1020.8
20260503200019 -17 0.0 0.0 0.00 0.00 0.00 1020.9
20260503195926 -17 0.0 0.0 0.00 0.00 0.00 1020.9
20260503195849 -17 0.0 0.0 0.00 0.00 0.00 1021.0
20260503195752 -17 0.0 0.0 0.00 0.00 0.00 1021.0
20260503195614 -17 0.0 0.0 0.00 0.00 0.00 1021.2
20260503195517 -17 0.0 0.0 0.00 0.00 0.00 1021.2
20260503195420 -17 0.0 0.0 0.00 0.00 0.00 1021.2
20260503195324 -17 0.0 0.0 0.00 0.00 0.00 1021.2
20260503195232 -17 0.0 0.0 0.00 0.00 0.00 1021.2
20260503195135 -17 0.0 0.0 0.00 0.00 0.00 1021.2
20260503195025 25 360 9.7 25.7 0.00 0.00 0.00 39 1021.2
20260503194454 25 360 9.7 25.7 0.00 0.00 0.00 39 1021.1
20260503194222 25 360 9.7 25.7 0.00 0.00 0.00 39 1021.2
20260503194127 25 360 9.7 25.7 0.00 0.00 0.00 39 1021.2
20260503194028 25 360 9.7 25.7 0.00 0.00 0.00 39 1021.3
20260503193928 25 360 9.7 25.7 0.00 0.00 0.00 39 1021.3
20260503193828 25 360 9.7 25.7 0.00 0.00 0.00 39 1021.2
20260503193729 25 360 9.7 25.7 0.00 0.00 0.00 37 1021.2
20260503193629 25 360 11.3 29.0 0.00 0.00 0.00 37 1021.2
20260503193550 25 360 11.3 29.0 0.00 0.00 0.00 37 1021.2
20260503193433 25 360 11.3 29.0 0.00 0.00 0.00 37 1021.2
20260503193333 25 360 12.9 29.0 0.00 0.00 0.00 37 1021.3
20260503193233 25 360 12.9 29.0 0.00 0.00 0.00 37 1021.2
20260503193134 25 360 14.5 29.0 0.00 0.00 0.00 39 1021.3
20260503193055 25 360 14.5 29.0 0.00 0.00 0.00 39 1021.4
20260503192954 25 360 14.5 29.0 0.00 0.00 0.00 39 1021.4
20260503192834 25 360 12.9 29.0 0.00 0.00 0.00 39 1021.3
20260503192756 25 360 12.9 33.8 0.00 0.00 0.00 39 1021.4
20260503192529 25 360 12.9 33.8 0.00 0.00 0.00 39 1021.4
20260503192430 25 360 12.9 33.8 0.00 0.00 0.00 39 1021.5
20260503192331 25 360 12.9 33.8 0.00 0.00 0.00 39 1021.5
20260503192231 25 360 11.3 33.8 0.00 0.00 0.00 39 1021.4
20260503192151 25 360 11.3 33.8 0.00 0.00 0.00 39 1021.4
20260503192031 25 360 11.3 33.8 0.00 0.00 0.00 39 1021.5
20260503191952 25 360 11.3 25.7 0.00 0.00 0.00 39 1021.5
20260503191831 25 360 9.7 25.7 0.00 0.00 0.00 39 1021.5
20260503191735 25 360 9.7 25.7 0.00 0.00 0.00 39 1021.4
20260503191636 25 360 9.7 24.1 0.00 0.00 0.00 40 1021.5
20260503191535 25 360 12.9 24.1 0.00 0.00 0.00 40 1021.5
20260503191416 25 360 14.5 27.4 0.00 0.00 0.00 38 1021.4
20260503191337 25 360 14.5 27.4 0.00 0.00 0.00 38 1021.5
20260503191217 25 360 14.5 27.4 0.00 0.00 0.00 36 1021.5
20260503191117 25 360 12.9 27.4 0.00 0.00 0.00 36 1021.5
20260503191040 25 360 14.5 27.4 0.00 0.00 0.00 36 1021.6
20260503190921 25 360 12.9 27.4 0.00 0.00 0.00 37 1021.6
20260503190822 25 360 12.9 29.0 0.00 0.00 0.00 38 1021.6
20260503190742 25 360 12.9 29.0 0.00 0.00 0.00 38 1021.6
20260503190621 25 360 12.9 29.0 0.00 0.00 0.00 38 1021.7
20260503190521 25 360 12.9 29.0 0.00 0.00 0.00 36 1021.6
20260503190421 25 360 12.9 29.0 0.00 0.00 0.00 36 1021.7
20260503190322 25 360 12.9 29.0 0.00 0.00 0.00 36 1021.7
20260503190226 25 360 11.3 29.0 0.00 0.00 0.00 36 1021.7
20260503190127 25 360 12.9 29.0 0.00 0.00 0.00 36 1021.7
20260503190026 25 360 12.9 29.0 0.00 0.00 0.00 36 1021.9
20260503185926 25 360 14.5 30.6 0.00 0.00 0.00 37 1021.8
20260503185827 25 360 14.5 30.6 0.00 0.00 0.00 37 1021.7
20260503185728 25 360 14.5 30.6 0.00 0.00 0.00 37 1021.7
20260503185628 25 360 12.9 30.6 0.00 0.00 0.00 37 1021.8
20260503185533 25 360 12.9 30.6 0.00 0.00 0.00 37 1022.0
20260503185432 25 360 12.9 30.6 0.00 0.00 0.00 37 1021.9
20260503185333 25 360 12.9 30.6 0.00 0.00 0.00 37 1021.9
20260503185234 25 360 12.9 30.6 0.00 0.00 0.00 37 1021.9
20260503185134 25 360 12.9 30.6 0.00 0.00 0.00 38 1021.9
20260503185034 25 360 11.3 30.6 0.00 0.00 0.00 38 1022.0
20260503184918 25 360 11.3 30.6 0.00 0.00 0.00 38 1022.0
20260503184819 25 360 9.7 30.6 0.00 0.00 0.00 35 1022.0
20260503184739 25 360 9.7 24.1 0.00 0.00 0.00 35 1022.0
20260503184619 25 360 9.7 24.1 0.00 0.00 0.00 35 1022.0
20260503184520 25 360 9.7 24.1 0.00 0.00 0.00 35 1022.1
20260503184421 25 360 8.0 24.1 0.00 0.00 0.00 35 1022.1
20260503184322 25 360 8.0 24.1 0.00 0.00 0.00 37 1022.1
20260503184241 25 360 8.0 24.1 0.00 0.00 0.00 37 1022.2
20260503184145 25 360 9.7 24.1 0.00 0.00 0.00 37 1022.1
20260503184024 25 360 9.7 24.1 0.00 0.00 0.00 36 1022.1
20260503183924 25 360 11.3 24.1 0.00 0.00 0.00 37 1022.2
20260503183827 25 360 11.3 24.1 0.00 0.00 0.00 37 1022.2
20260503183727 25 360 11.3 24.1 0.00 0.00 0.00 37 1022.2
20260503183648 25 360 12.9 24.1 0.00 0.00 0.00 37 1022.1
20260503183528 25 360 12.9 24.1 0.00 0.00 0.00 37 1022.2
20260503183432 25 360 14.5 24.1 0.00 0.00 0.00 37 1022.1
20260503183332 25 360 14.5 24.1 0.00 0.00 0.00 35 1022.2
20260503183231 25 360 14.5 24.1 0.00 0.00 0.00 35 1022.2
20260503183132 25 360 14.5 24.1 0.00 0.00 0.00 35 1022.2
20260503183032 25 360 16.1 24.1 0.00 0.00 0.00 37 1022.2
20260503182933 25 360 14.5 24.1 0.00 0.00 0.00 37 1022.3
20260503182834 25 360 14.5 24.1 0.00 0.00 0.00 37 1022.3
20260503182718 25 360 14.5 24.1 0.00 0.00 0.00 37 1022.3
20260503182638 25 360 12.9 24.1 0.00 0.00 0.00 37 1022.4
20260503182519 25 360 12.9 24.1 0.00 0.00 0.00 37 1022.5
20260503182419 25 360 11.3 29.0 0.00 0.00 0.00 37 1022.5
20260503182321 25 360 11.3 29.0 0.00 0.00 0.00 37 1022.5
20260503182240 25 360 11.3 29.0 0.00 0.00 0.00 37 1022.6
20260503182120 25 360 11.3 29.0 0.00 0.00 0.00 37 1022.5
20260503182024 25 360 11.3 29.0 0.00 0.00 0.00 37 1022.5
20260503181925 25 360 11.3 29.0 0.00 0.00 0.00 37 1022.5
20260503181825 24 360 11.3 29.0 0.00 0.00 0.00 36 1022.5
20260503181725 24 360 12.9 29.0 0.00 0.00 0.00 36 1022.5
20260503181625 24 360 14.5 35.4 0.00 0.00 0.00 37 1022.5
20260503181526 25 360 14.5 35.4 0.00 0.00 0.00 37 1022.5
20260503181447 25 360 14.5 35.4 0.00 0.00 0.00 37 1022.6
20260503181330 25 360 14.5 35.4 0.00 0.00 0.00 38 1022.5
20260503181231 25 360 14.5 35.4 0.00 0.00 0.00 38 1022.5
20260503181151 25 360 16.1 35.4 0.00 0.00 0.00 38 1022.5
20260503181031 25 360 14.5 35.4 0.00 0.00 0.00 37 1022.5
20260503180930 25 360 14.5 35.4 0.00 0.00 0.00 37 1022.5
20260503180830 25 360 14.5 32.2 0.00 0.00 0.00 37 1022.6
20260503180731 25 360 14.5 32.2 0.00 0.00 0.00 37 1022.6
20260503180651 25 360 14.5 32.2 0.00 0.00 0.00 38 1022.6
20260503180535 25 360 14.5 32.2 0.00 0.00 0.00 38 1022.6
20260503180435 25 360 16.1 32.2 0.00 0.00 0.00 38 1022.7
20260503180356 25 360 16.1 32.2 0.00 0.00 0.00 37 1022.6
20260503180255 25 360 16.1 32.2 0.00 0.00 0.00 37 1022.7
20260503180135 25 360 14.5 32.2 0.00 0.00 0.00 37 1022.8
20260503180055 25 360 12.9 33.8 0.00 0.00 0.00 38 1022.8
20260503175955 25 360 11.3 33.8 0.00 0.00 0.00 38 1022.8
20260503175834 25 360 11.3 33.8 0.00 0.00 0.00 38 1022.9
20260503175718 25 360 9.7 33.8 0.00 0.00 0.00 38 1022.9
20260503175619 25 360 6.4 33.8 0.00 0.00 0.00 37 1023.0
20260503175519 25 360 9.7 33.8 0.00 0.00 0.00 37 1023.0
20260503175420 25 360 11.3 33.8 0.00 0.00 0.00 37 1023.1
20260503175320 25 360 12.9 33.8 0.00 0.00 0.00 37 1023.1
20260503175221 25 360 14.5 33.8 0.00 0.00 0.00 39 1023.2
20260503175122 25 360 16.1 33.8 0.00 0.00 0.00 38 1023.1
20260503175046 24 360 17.7 33.8 0.00 0.00 0.00 37 1023.2
20260503174926 24 360 17.7 33.8 0.00 0.00 0.00 37 1023.2
20260503174826 25 360 17.7 33.8 0.00 0.00 0.00 37 1023.2
20260503174746 25 360 17.7 29.0 0.00 0.00 0.00 39 1023.1
20260503174624 25 360 17.7 29.0 0.00 0.00 0.00 39 1023.1
20260503174525 25 360 14.5 29.0 0.00 0.00 0.00 39 1023.1
20260503174426 25 360 14.5 29.0 0.00 0.00 0.00 38 1023.1
20260503174326 25 360 11.3 24.1 0.00 0.00 0.00 38 1023.0
20260503174231 25 360 9.7 24.1 0.00 0.00 0.00 38 1023.2
20260503174151 25 360 8.0 22.5 0.00 0.00 0.00 39 1023.2
20260503174031 25 360 9.7 22.5 0.00 0.00 0.00 39 1023.2
20260503173930 25 360 8.0 22.5 0.00 0.00 0.00 39 1023.3
20260503173831 25 360 8.0 33.8 0.00 0.00 0.00 38 1023.2
20260503173732 25 360 6.4 33.8 0.00 0.00 0.00 38 1023.3
20260503173652 25 360 9.7 33.8 0.00 0.00 0.00 38 1023.3
20260503173536 25 360 11.3 33.8 0.00 0.00 0.00 38 1023.3
20260503173434 25 360 11.3 33.8 0.00 0.00 0.00 38 1023.3
20260503173335 25 360 9.7 33.8 0.00 0.00 0.00 40 1023.4
20260503173235 24 360 9.7 33.8 0.00 0.00 0.00 39 1023.3
20260503173135 24 360 9.7 33.8 0.00 0.00 0.00 39 1023.3
20260503173016 24 360 526.3 33.8 0.00 0.00 0.00 39 1023.2
20260503172917 24 360 526.3 25.7 0.00 0.00 0.00 39 1023.2
20260503172822 24 360 526.3 25.7 0.00 0.00 0.00 39 1023.1
20260503172721 24 360 526.3 25.7 0.00 0.00 0.00 39 1023.2
20260503172622 24 360 526.3 25.7 0.00 0.00 0.00 37 1023.2
20260503172543 24 360 526.3 25.7 0.00 0.00 0.00 37 1023.2
20260503172503 24 360 526.3 25.7 0.00 0.00 0.00 37 1023.3
20260503172227 -17 0.0 0.0 0.00 0.00 0.00 1023.4
20260503172115 -17 0.0 0.0 0.00 0.00 0.00 1023.4
20260503172019 -17 0.0 0.0 0.00 0.00 0.00 1023.4
20260503171942 -17 0.0 0.0 0.00 0.00 0.00 1023.4
20260503171844 -17 0.0 0.0 0.00 0.00 0.00 1023.4
20260503171727 -17 0.0 0.0 0.00 0.00 0.00 1023.6
20260503171631 -17 0.0 0.0 0.00 0.00 0.00 1023.4
20260503171514 -17 0.0 0.0 0.00 0.00 0.00 1023.4
20260503171423 -17 0.0 0.0 0.00 0.00 0.00 1023.4
20260503171345 -17 0.0 0.0 0.00 0.00 0.00 1023.5
20260503171228 -17 0.0 0.0 0.00 0.00 0.00 1023.6
20260503171132 -17 0.0 0.0 0.00 0.00 0.00 1023.6
20260503171016 -17 0.0 0.0 0.00 0.00 0.00 1023.6
20260503170920 -17 0.0 0.0 0.00 0.00 0.00 1023.6
20260503170822 -17 0.0 0.0 0.00 0.00 0.00 1023.6
20260503170728 -17 0.0 0.0 0.00 0.00 0.00 1023.6
20260503170632 -17 0.0 0.0 0.00 0.00 0.00 1023.7
20260503170528 -17 0.0 0.0 0.00 0.00 0.00 1023.6
20260503170432 -17 0.0 0.0 0.00 0.00 0.00 1023.6
20260503170336 -17 0.0 0.0 0.00 0.00 0.00 1023.6
20260503170219 -17 0.0 0.0 0.00 0.00 0.00 1023.6
20260503170124 -17 0.0 0.0 0.00 0.00 0.00 1023.6
20260503160213 -17 0.0 0.0 0.00 0.00 0.00 1024.3
20260503160136 -17 0.0 0.0 0.00 0.00 0.00 1024.3
20260503150943 -17 0.0 0.0 0.00 0.00 0.00 1024.2
20260503150826 -17 0.0 0.0 0.00 0.00 0.00 1024.3
20260503150728 -17 0.0 0.0 0.00 0.00 0.00 1024.2
20260503150636 -17 0.0 0.0 0.00 0.00 0.00 1024.3
20260503150600 -17 0.0 0.0 0.00 0.00 0.00 1024.2
20260503150415 -17 0.0 0.0 0.00 0.00 0.00 1024.2
20260503150318 -17 0.0 0.0 0.00 0.00 0.00 1024.1
20260503150221 -17 0.0 0.0 0.00 0.00 0.00 1024.1
20260503150124 -17 0.0 0.0 0.00 0.00 0.00 1024.1
20260503140225 -17 0.0 0.0 0.00 0.00 0.00 1023.9
20260503140149 -17 0.0 0.0 0.00 0.00 0.00 1023.9
20260503131330 15 360 1.6 4.8 0.00 0.00 0.00 76 1023.7
20260503131231 15 360 3.2 6.4 0.00 0.00 0.00 76 1023.6
20260503131136 15 360 3.2 6.4 0.00 0.00 0.00 76 1023.7
20260503131037 15 360 3.2 6.4 0.00 0.00 0.00 76 1023.7
20260503130935 14 360 3.2 6.4 0.00 0.00 0.00 76 1023.7
20260503130816 14 360 3.2 6.4 0.00 0.00 0.00 77 1023.6
20260503130717 14 360 3.2 6.4 0.00 0.00 0.00 77 1023.6
20260503130616 14 360 3.2 6.4 0.00 0.00 0.00 77 1023.6
20260503130521 13 360 3.2 6.4 0.00 0.00 0.00 77 1023.6
20260503130441 13 360 3.2 6.4 0.00 0.00 0.00 78 1023.6
20260503130321 13 360 3.2 6.4 0.00 0.00 0.00 78 1023.6
20260503130241 13 360 3.2 6.4 0.00 0.00 0.00 78 1023.6
20260503130120 13 360 3.2 6.4 0.00 0.00 0.00 78 1023.6
20260503120127 10 360 3.2 4.8 0.00 0.00 0.00 85 1023.2
20260503110734 11 360 3.2 4.8 0.00 0.00 0.00 82 1022.7
20260503110634 11 360 3.2 4.8 0.00 0.00 0.00 83 1022.8
20260503110535 11 360 3.2 4.8 0.00 0.00 0.00 83 1022.7
20260503110434 11 360 1.6 4.8 0.00 0.00 0.00 83 1022.7
20260503110335 11 360 1.6 3.2 0.00 0.00 0.00 83 1022.6
20260503110216 11 360 1.6 3.2 0.00 0.00 0.00 83 1022.6
20260503110120 11 360 0.0 3.2 0.00 0.00 0.00 83 1022.6
20260503100219 11 360 3.2 6.4 0.00 0.00 0.00 84 1022.1
20260503100120 11 360 3.2 6.4 0.00 0.00 0.00 84 1022.1
20260503090419 11 360 1.6 3.2 0.00 0.00 0.00 83 1022.2
20260503090320 11 360 1.6 4.8 0.00 0.00 0.00 83 1022.2
20260503090221 11 360 1.6 4.8 0.00 0.00 0.00 83 1022.2
20260503090142 11 360 1.6 4.8 0.00 0.00 0.00 83 1022.2
20260503081629 12 360 3.2 4.8 0.00 0.00 0.00 78 1022.2
20260503081530 12 360 3.2 4.8 0.00 0.00 0.00 78 1022.3
20260503081430 12 360 3.2 4.8 0.00 0.00 0.00 78 1022.3
20260503081330 12 360 3.2 3.2 0.00 0.00 0.00 77 1022.3
20260503081230 12 360 3.2 3.2 0.00 0.00 0.00 77 1022.3
20260503081151 12 360 3.2 3.2 0.00 0.00 0.00 77 1022.3
20260503081030 12 360 3.2 3.2 0.00 0.00 0.00 77 1022.2
20260503080935 12 360 3.2 3.2 0.00 0.00 0.00 77 1022.2
20260503080835 12 360 1.6 3.2 0.00 0.00 0.00 77 1022.2
20260503080755 12 360 1.6 3.2 0.00 0.00 0.00 77 1022.1
20260503080634 12 360 1.6 3.2 0.00 0.00 0.00 77 1022.1
20260503080535 13 360 1.6 3.2 0.00 0.00 0.00 77 1022.1
20260503080455 13 360 1.6 3.2 0.00 0.00 0.00 77 1022.2
20260503080355 13 360 1.6 3.2 0.00 0.00 0.00 77 1022.2
20260503080254 13 360 3.2 3.2 0.00 0.00 0.00 77 1022.2
20260503080118 13 360 3.2 3.2 0.00 0.00 0.00 77 1022.2
20260503072828 13 138 1.6 3.2 0.00 0.00 0.00 75 1022.5
20260503072729 13 138 1.6 3.2 0.00 0.00 0.00 75 1022.6
20260503072629 13 139 1.6 3.2 0.00 0.00 0.00 75 1022.5
20260503072550 13 360 1.6 3.2 0.00 0.00 0.00 75 1022.7
20260503072430 13 360 1.6 3.2 0.00 0.00 0.00 75 1022.6
20260503072330 13 360 1.6 3.2 0.00 0.00 0.00 76 1022.7
20260503072251 13 360 1.6 3.2 0.00 0.00 0.00 76 1022.7
20260503072135 13 360 1.6 3.2 0.00 0.00 0.00 76 1022.7
20260503072016 13 360 1.6 3.2 0.00 0.00 0.00 75 1022.7
20260503071916 13 360 1.6 3.2 0.00 0.00 0.00 75 1022.7
20260503071817 13 360 1.6 3.2 0.00 0.00 0.00 75 1022.7
20260503071718 13 360 1.6 3.2 0.00 0.00 0.00 75 1022.7
20260503071619 13 360 1.6 3.2 0.00 0.00 0.00 75 1022.7
20260503071541 13 360 1.6 3.2 0.00 0.00 0.00 74 1022.6
20260503071425 13 360 1.6 3.2 0.00 0.00 0.00 74 1022.6
20260503071325 13 360 1.6 3.2 0.00 0.00 0.00 74 1022.6
20260503071225 13 360 1.6 3.2 0.00 0.00 0.00 74 1022.5
20260503071127 13 360 1.6 3.2 0.00 0.00 0.00 74 1022.5
20260503071028 13 360 1.6 3.2 0.00 0.00 0.00 74 1022.4
20260503070928 13 360 1.6 3.2 0.00 0.00 0.00 74 1022.4
20260503070833 13 360 1.6 3.2 0.00 0.00 0.00 74 1022.4
20260503070734 13 360 1.6 3.2 0.00 0.00 0.00 74 1022.5
20260503070635 13 360 1.6 3.2 0.00 0.00 0.00 74 1022.5
20260503070535 13 360 1.6 3.2 0.00 0.00 0.00 74 1022.5
20260503070417 13 360 1.6 3.2 0.00 0.00 0.00 74 1022.5
20260503070317 13 360 1.6 3.2 0.00 0.00 0.00 75 1022.6
20260503070222 13 360 1.6 3.2 0.00 0.00 0.00 75 1022.5
20260503070143 13 360 1.6 3.2 0.00 0.00 0.00 75 1022.5
20260503060324 14 360 1.6 3.2 0.00 0.00 0.00 74 1022.9
20260503060225 14 360 1.6 3.2 0.00 0.00 0.00 75 1022.9
20260503060145 14 360 1.6 3.2 0.00 0.00 0.00 75 1022.9
20260503055127 14 360 0.0 1.6 0.00 0.00 0.00 77 1022.8
20260503055048 14 360 0.0 1.6 0.00 0.00 0.00 76 1022.7
20260503054928 14 360 0.0 1.6 0.00 0.00 0.00 76 1022.7
20260503054829 14 360 0.0 3.2 0.00 0.00 0.00 76 1022.7
20260503054732 14 360 0.0 3.2 0.00 0.00 0.00 76 1022.7
20260503054653 14 360 0.0 3.2 0.00 0.00 0.00 76 1022.7
20260503054533 14 360 0.0 3.2 0.00 0.00 0.00 76 1022.7
20260503054454 14 360 0.0 3.2 0.00 0.00 0.00 76 1022.8
20260503054332 14 360 0.0 3.2 0.00 0.00 0.00 75 1022.7
20260503054233 14 360 1.6 3.2 0.00 0.00 0.00 75 1022.7
20260503054132 14 360 1.6 3.2 0.00 0.00 0.00 75 1022.7
20260503054033 14 360 1.6 3.2 0.00 0.00 0.00 75 1022.7
20260503053918 14 360 3.2 4.8 0.00 0.00 0.00 74 1022.7
20260503053819 14 360 3.2 4.8 0.00 0.00 0.00 74 1022.7
20260503053719 14 360 3.2 4.8 0.00 0.00 0.00 74 1022.8
20260503053639 14 360 3.2 4.8 0.00 0.00 0.00 74 1022.7
20260503053519 14 360 3.2 4.8 0.00 0.00 0.00 74 1022.7
20260503053439 14 360 3.2 4.8 0.00 0.00 0.00 73 1022.8
20260503053339 14 360 3.2 4.8 0.00 0.00 0.00 73 1022.8
20260503053238 14 360 3.2 4.8 0.00 0.00 0.00 73 1022.8
20260503053121 14 360 3.2 4.8 0.00 0.00 0.00 73 1022.8
20260503053042 14 137 3.2 4.8 0.00 0.00 0.00 72 1022.8
20260503052921 15 360 3.2 4.8 0.00 0.00 0.00 72 1022.8
20260503052821 15 360 3.2 4.8 0.00 0.00 0.00 72 1022.8
20260503052743 15 360 3.2 4.8 0.00 0.00 0.00 72 1022.8
20260503052615 15 360 3.2 4.8 0.00 0.00 0.00 72 1022.8
20260503052517 15 360 3.2 4.8 0.00 0.00 0.00 72 1022.8
20260503052422 15 360 3.2 4.8 0.00 0.00 0.00 72 1022.8
20260503052342 15 360 1.6 3.2 0.00 0.00 0.00 72 1022.8
20260503052242 15 360 1.6 3.2 0.00 0.00 0.00 72 1022.8
20260503052121 15 360 1.6 3.2 0.00 0.00 0.00 72 1022.8
20260503052021 15 360 1.6 3.2 0.00 0.00 0.00 72 1022.8
20260503051942 15 360 1.6 3.2 0.00 0.00 0.00 72 1022.8
20260503051816 15 360 1.6 3.2 0.00 0.00 0.00 71 1022.9
20260503051717 15 360 1.6 3.2 0.00 0.00 0.00 71 1022.8
20260503051621 15 360 1.6 3.2 0.00 0.00 0.00 71 1022.9
20260503051521 15 360 1.6 3.2 0.00 0.00 0.00 71 1022.9
20260503051422 15 360 1.6 3.2 0.00 0.00 0.00 71 1022.9
20260503051323 15 360 1.6 3.2 0.00 0.00 0.00 71 1022.9
20260503051223 15 360 1.6 3.2 0.00 0.00 0.00 72 1022.9
20260503051124 15 360 1.6 3.2 0.00 0.00 0.00 72 1023.0
20260503051029 15 360 1.6 3.2 0.00 0.00 0.00 72 1023.0
20260503050929 15 360 1.6 3.2 0.00 0.00 0.00 72 1023.0
20260503050829 15 360 1.6 3.2 0.00 0.00 0.00 72 1022.9
20260503050730 15 360 1.6 3.2 0.00 0.00 0.00 72 1022.8
20260503050629 15 360 1.6 3.2 0.00 0.00 0.00 73 1022.9
20260503050550 15 360 1.6 3.2 0.00 0.00 0.00 73 1022.8
20260503050430 15 360 1.6 3.2 0.00 0.00 0.00 73 1022.7
20260503050331 15 360 1.6 3.2 0.00 0.00 0.00 72 1022.8
20260503050256 15 360 1.6 3.2 0.00 0.00 0.00 72 1022.8
20260503050155 15 360 1.6 3.2 0.00 0.00 0.00 72 1022.8
20260503050034 15 360 1.6 3.2 0.00 0.00 0.00 72 1022.8
20260503045928 15 360 0.0 3.2 0.00 0.00 0.00 72 1022.8
20260503045828 15 360 0.0 3.2 0.00 0.00 0.00 72 1022.8
20260503045731 15 360 0.0 3.2 0.00 0.00 0.00 72 1022.9
20260503045651 15 360 0.0 3.2 0.00 0.00 0.00 72 1022.9
20260503045530 15 360 0.0 3.2 0.00 0.00 0.00 72 1022.9
20260503045435 15 360 0.0 3.2 0.00 0.00 0.00 72 1022.9
20260503045335 15 360 0.0 3.2 0.00 0.00 0.00 72 1022.9
20260503045236 15 360 0.0 3.2 0.00 0.00 0.00 71 1022.8
20260503045116 15 360 0.0 3.2 0.00 0.00 0.00 71 1022.8
20260503045018 15 360 1.6 3.2 0.00 0.00 0.00 71 1022.8
20260503044918 15 360 1.6 3.2 0.00 0.00 0.00 71 1022.7
20260503044823 15 360 1.6 3.2 0.00 0.00 0.00 71 1022.8
20260503044743 15 360 1.6 3.2 0.00 0.00 0.00 71 1022.8
20260503044623 15 360 1.6 3.2 0.00 0.00 0.00 70 1022.8
20260503044523 15 360 1.6 3.2 0.00 0.00 0.00 70 1022.8
20260503044424 15 360 1.6 3.2 0.00 0.00 0.00 70 1022.8
20260503044324 15 360 1.6 3.2 0.00 0.00 0.00 70 1022.7
20260503044225 15 360 1.6 3.2 0.00 0.00 0.00 70 1022.8
20260503044130 15 360 1.6 3.2 0.00 0.00 0.00 70 1022.8
20260503044030 15 360 1.6 3.2 0.00 0.00 0.00 70 1022.8
20260503043931 15 360 1.6 3.2 0.00 0.00 0.00 70 1022.9
20260503043831 15 360 1.6 3.2 0.00 0.00 0.00 70 1022.9
20260503043752 15 360 1.6 3.2 0.00 0.00 0.00 70 1022.9
20260503043630 15 360 1.6 3.2 0.00 0.00 0.00 70 1023.0
20260503043531 15 360 1.6 3.2 0.00 0.00 0.00 70 1022.9
20260503043416 15 360 0.0 1.6 0.00 0.00 0.00 70 1023.0
20260503043337 15 360 0.0 1.6 0.00 0.00 0.00 70 1023.0
20260503043257 15 360 0.0 1.6 0.00 0.00 0.00 70 1022.9
20260503043157 15 360 0.0 1.6 0.00 0.00 0.00 70 1023.0
20260503043056 15 360 0.0 1.6 0.00 0.00 0.00 70 1022.9
20260503042935 15 360 0.0 1.6 0.00 0.00 0.00 71 1022.9
20260503042855 15 360 0.0 1.6 0.00 0.00 0.00 71 1022.9
20260503042735 15 96 0.0 1.6 0.00 0.00 0.00 71 1022.9
20260503042638 15 96 0.0 1.6 0.00 0.00 0.00 71 1022.9
20260503042518 15 96 0.0 1.6 0.00 0.00 0.00 71 1022.9
20260503042418 15 96 1.6 1.6 0.00 0.00 0.00 70 1022.9
20260503042339 15 96 1.6 1.6 0.00 0.00 0.00 70 1022.9
20260503042239 15 96 1.6 1.6 0.00 0.00 0.00 70 1022.9
20260503042117 15 96 1.6 1.6 0.00 0.00 0.00 70 1022.8
20260503042017 15 96 0.0 1.6 0.00 0.00 0.00 70 1022.9
20260503041917 15 96 0.0 1.6 0.00 0.00 0.00 70 1022.8
20260503041817 15 96 0.0 1.6 0.00 0.00 0.00 71 1022.8
20260503041722 15 96 0.0 1.6 0.00 0.00 0.00 71 1022.7
20260503041623 15 96 0.0 1.6 0.00 0.00 0.00 71 1022.7
20260503041522 15 96 0.0 1.6 0.00 0.00 0.00 71 1022.7
20260503041422 15 96 0.0 1.6 0.00 0.00 0.00 71 1022.6
20260503041342 15 96 0.0 1.6 0.00 0.00 0.00 70 1022.6
20260503041216 15 96 0.0 3.2 0.00 0.00 0.00 70 1022.6
20260503041116 15 96 0.0 3.2 0.00 0.00 0.00 70 1022.5
20260503041040 15 96 0.0 3.2 0.00 0.00 0.00 70 1022.5
20260503040920 15 95 1.6 3.2 0.00 0.00 0.00 69 1022.5
20260503040841 15 96 1.6 3.2 0.00 0.00 0.00 69 1022.5
20260503040721 15 96 1.6 3.2 0.00 0.00 0.00 69 1022.5
20260503040622 15 96 1.6 3.2 0.00 0.00 0.00 69 1022.5
20260503040541 15 96 1.6 3.2 0.00 0.00 0.00 69 1022.4
20260503040421 15 96 1.6 1.6 0.00 0.00 0.00 69 1022.4
20260503040321 15 96 0.0 1.6 0.00 0.00 0.00 69 1022.4
20260503040226 15 96 0.0 1.6 0.00 0.00 0.00 69 1022.4
20260503040125 15 96 0.0 1.6 0.00 0.00 0.00 69 1022.4
20260503040025 15 96 0.0 1.6 0.00 0.00 0.00 69 1022.5
20260503035926 15 96 0.0 1.6 0.00 0.00 0.00 69 1022.5
20260503035847 15 96 1.6 1.6 0.00 0.00 0.00 69 1022.5
20260503035725 15 96 1.6 1.6 0.00 0.00 0.00 68 1022.5
20260503035625 16 96 1.6 1.6 0.00 0.00 0.00 68 1022.5
20260503035529 16 96 526.3 1.6 0.00 0.00 0.00 68 1022.5
20260503035429 16 96 526.3 3.2 0.00 0.00 0.00 68 1022.5
20260503035330 16 96 526.3 3.2 0.00 0.00 0.00 68 1022.5
20260503035231 16 96 526.3 3.2 0.00 0.00 0.00 68 1022.6
20260503035131 16 96 526.3 3.2 0.00 0.00 0.00 68 1022.6
20260503035031 16 96 526.3 3.2 0.00 0.00 0.00 68 1022.6
20260503034931 -17 96 526.3 3.2 0.00 0.00 0.00 68 1022.5
20260503034837 -17 96 526.3 1.6 0.00 0.00 0.00 1022.5
20260503034714 -17 0.0 0.0 0.00 0.00 0.00 1022.6
20260503034618 -17 0.0 0.0 0.00 0.00 0.00 1022.6
20260503034522 -17 0.0 0.0 0.00 0.00 0.00 1022.6
20260503034424 -17 0.0 0.0 0.00 0.00 0.00 1022.6
20260503034349 -17 0.0 0.0 0.00 0.00 0.00 1022.6
20260503034232 -17 0.0 0.0 0.00 0.00 0.00 1022.6
20260503034139 -17 0.0 0.0 0.00 0.00 0.00 1022.5
20260503034022 -17 0.0 0.0 0.00 0.00 0.00 1022.4
20260503033925 -17 0.0 0.0 0.00 0.00 0.00 1022.4
20260503033828 -17 0.0 0.0 0.00 0.00 0.00 1022.4
20260503033752 -17 0.0 0.0 0.00 0.00 0.00 1022.4
20260503033614 -17 0.0 0.0 0.00 0.00 0.00 1022.4
20260503033518 -17 0.0 0.0 0.00 0.00 0.00 1022.4
20260503033446 -17 0.0 0.0 0.00 0.00 0.00 1022.4
20260503033328 -17 0.0 0.0 0.00 0.00 0.00 1022.4
20260503033252 -17 0.0 0.0 0.00 0.00 0.00 1022.4
20260503033019 -17 0.0 0.0 0.00 0.00 0.00 1022.3
20260503032923 -17 0.0 0.0 0.00 0.00 0.00 1022.3
20260503032828 -17 0.0 0.0 0.00 0.00 0.00 1022.3
20260503032714 -17 0.0 0.0 0.00 0.00 0.00 1022.4
20260503032637 -17 0.0 0.0 0.00 0.00 0.00 1022.4
20260503032601 -17 0.0 0.0 0.00 0.00 0.00 1022.3
20260503032415 -17 0.0 0.0 0.00 0.00 0.00 1022.2
20260503032339 -17 0.0 0.0 0.00 0.00 0.00 1022.3
20260503032222 -17 0.0 0.0 0.00 0.00 0.00 1022.3
20260503032126 -17 0.0 0.0 0.00 0.00 0.00 1022.3
20260503032012 -17 0.0 0.0 0.00 0.00 0.00 1022.2
20260503031916 -17 0.0 0.0 0.00 0.00 0.00 1022.1
20260503031820 -17 0.0 0.0 0.00 0.00 0.00 1022.2
20260503031722 -17 0.0 0.0 0.00 0.00 0.00 1022.2
20260503031625 -17 0.0 0.0 0.00 0.00 0.00 1022.2
20260503031529 -17 0.0 0.0 0.00 0.00 0.00 1022.2
20260503031432 -17 0.0 0.0 0.00 0.00 0.00 1022.2
20260503031320 -17 0.0 0.0 0.00 0.00 0.00 1022.1
20260503031224 -17 0.0 0.0 0.00 0.00 0.00 1022.1
20260503031126 -17 0.0 0.0 0.00 0.00 0.00 1022.1
20260503031029 -17 0.0 0.0 0.00 0.00 0.00 1022.1
20260503030914 -17 0.0 0.0 0.00 0.00 0.00 1022.1
20260503030817 -17 0.0 0.0 0.00 0.00 0.00 1022.1
20260503030726 -17 0.0 0.0 0.00 0.00 0.00 1022.1
20260503030648 -17 0.0 0.0 0.00 0.00 0.00 1022.1
20260503030531 -17 0.0 0.0 0.00 0.00 0.00 1022.1
20260503030433 -17 0.0 0.0 0.00 0.00 0.00 1022.0
20260503030334 -17 0.0 0.0 0.00 0.00 0.00 1022.0
20260503030217 -17 0.0 0.0 0.00 0.00 0.00 1022.0
20260503030120 -17 0.0 0.0 0.00 0.00 0.00 1022.0
20260503030027 -17 0.0 0.0 0.00 0.00 0.00 1022.0
20260503025928 -17 0.0 0.0 0.00 0.00 0.00 1022.0
20260503025830 -17 0.0 0.0 0.00 0.00 0.00 1022.0
20260503025731 -17 0.0 0.0 0.00 0.00 0.00 1022.0
20260503025632 -17 0.0 0.0 0.00 0.00 0.00 1022.0
20260503025532 -17 0.0 0.0 0.00 0.00 0.00 1022.0
20260503025413 -17 0.0 0.0 0.00 0.00 0.00 1022.0
20260503025316 -17 0.0 0.0 0.00 0.00 0.00 1022.0
20260503025220 -17 0.0 0.0 0.00 0.00 0.00 1022.0
20260503025127 -17 0.0 0.0 0.00 0.00 0.00 1022.0
20260503025049 -17 0.0 0.0 0.00 0.00 0.00 1022.0
20260503024950 -17 0.0 0.0 0.00 0.00 0.00 1022.0
20260503024829 -17 0.0 0.0 0.00 0.00 0.00 1022.0
20260503024713 -17 0.0 0.0 0.00 0.00 0.00 1022.2
20260503024635 -17 0.0 0.0 0.00 0.00 0.00 1022.2
20260503024515 -17 0.0 0.0 0.00 0.00 0.00 1022.0
20260503024418 -17 0.0 0.0 0.00 0.00 0.00 1022.1
20260503024320 -17 0.0 0.0 0.00 0.00 0.00 1022.0
20260503024243 -17 0.0 0.0 0.00 0.00 0.00 1022.0
20260503024013 -17 0.0 0.0 0.00 0.00 0.00 1022.1
20260503023937 -17 0.0 0.0 0.00 0.00 0.00 1022.1
20260503023813 -17 0.0 0.0 0.00 0.00 0.00 1021.9
20260503023716 -17 0.0 0.0 0.00 0.00 0.00 1021.9
20260503023640 -17 0.0 0.0 0.00 0.00 0.00 1021.9
20260503023515 -17 0.0 0.0 0.00 0.00 0.00 1021.9
20260503023423 -17 0.0 0.0 0.00 0.00 0.00 1021.9
20260503023327 -17 0.0 0.0 0.00 0.00 0.00 1021.7
20260503023230 -17 0.0 0.0 0.00 0.00 0.00 1021.8
20260503023115 -17 0.0 0.0 0.00 0.00 0.00 1021.7
20260503023039 -17 0.0 0.0 0.00 0.00 0.00 1021.7
20260503022916 -17 0.0 0.0 0.00 0.00 0.00 1021.6
20260503022823 -17 0.0 0.0 0.00 0.00 0.00 1021.6
20260503022722 -17 0.0 0.0 0.00 0.00 0.00 1021.6
20260503022626 -17 0.0 0.0 0.00 0.00 0.00 1021.6
20260503022528 -17 0.0 0.0 0.00 0.00 0.00 1021.6
20260503022450 -17 0.0 0.0 0.00 0.00 0.00 1021.5
20260503022329 -17 0.0 0.0 0.00 0.00 0.00 1021.6
20260503022225 -17 0.0 0.0 0.00 0.00 0.00 1021.6
20260503022126 -17 0.0 0.0 0.00 0.00 0.00 1021.5
20260503022048 -17 0.0 0.0 0.00 0.00 0.00 1021.6
20260503021927 -17 0.0 0.0 0.00 0.00 0.00 1021.6
20260503021814 -17 0.0 0.0 0.00 0.00 0.00 1021.4
20260503021738 -17 0.0 0.0 0.00 0.00 0.00 1021.4
20260503021613 -17 0.0 0.0 0.00 0.00 0.00 1021.4
20260503021515 -17 0.0 0.0 0.00 0.00 0.00 1021.4
20260503021416 -17 0.0 0.0 0.00 0.00 0.00 1021.4
20260503021316 -17 0.0 0.0 0.00 0.00 0.00 1021.5
20260503021238 -17 0.0 0.0 0.00 0.00 0.00 1021.5
20260503021114 -17 0.0 0.0 0.00 0.00 0.00 1021.4
20260503021022 -17 0.0 0.0 0.00 0.00 0.00 1021.4
20260503020924 -17 0.0 0.0 0.00 0.00 0.00 1021.4
20260503020828 -17 0.0 0.0 0.00 0.00 0.00 1021.3
20260503020732 -17 0.0 0.0 0.00 0.00 0.00 1021.4
20260503020636 -17 0.0 0.0 0.00 0.00 0.00 1021.3
20260503020533 -17 0.0 0.0 0.00 0.00 0.00 1021.3
20260503020439 -17 0.0 0.0 0.00 0.00 0.00 1021.3
20260503020321 -17 0.0 0.0 0.00 0.00 0.00 1021.2
20260503020225 -17 0.0 0.0 0.00 0.00 0.00 1021.2
20260503020129 -17 0.0 0.0 0.00 0.00 0.00 1021.2
20260503020033 -17 0.0 0.0 0.00 0.00 0.00 1021.2
20260503015916 -17 0.0 0.0 0.00 0.00 0.00 1021.2
20260503015824 -17 0.0 0.0 0.00 0.00 0.00 1021.2
20260503015729 -17 0.0 0.0 0.00 0.00 0.00 1021.2
20260503015631 -17 0.0 0.0 0.00 0.00 0.00 1021.2
20260503015515 -17 0.0 0.0 0.00 0.00 0.00 1021.1
20260503015437 -17 0.0 0.0 0.00 0.00 0.00 1021.3
20260503015321 -17 0.0 0.0 0.00 0.00 0.00 1021.1
20260503015225 -17 0.0 0.0 0.00 0.00 0.00 1021.1
20260503015113 -17 0.0 0.0 0.00 0.00 0.00 1021.2
20260503015016 -17 0.0 0.0 0.00 0.00 0.00 1021.1
20260503014920 -17 0.0 0.0 0.00 0.00 0.00 1021.2
20260503014844 -17 0.0 0.0 0.00 0.00 0.00 1021.2
20260503014726 -17 0.0 0.0 0.00 0.00 0.00 1021.2
20260503014629 -17 0.0 0.0 0.00 0.00 0.00 1021.2
20260503014517 -17 0.0 0.0 0.00 0.00 0.00 1021.1
20260503014421 -17 0.0 0.0 0.00 0.00 0.00 1021.1
20260503014344 -17 0.0 0.0 0.00 0.00 0.00 1021.1
20260503014225 -17 0.0 0.0 0.00 0.00 0.00 1021.2
20260503014129 -17 0.0 0.0 0.00 0.00 0.00 1021.2
20260503014031 -17 0.0 0.0 0.00 0.00 0.00 1021.1
20260503013915 -17 0.0 0.0 0.00 0.00 0.00 1021.1
20260503013822 -17 0.0 0.0 0.00 0.00 0.00 1021.1
20260503013726 -17 0.0 0.0 0.00 0.00 0.00 1021.1
20260503013649 -17 0.0 0.0 0.00 0.00 0.00 1021.1
20260503013531 -17 0.0 0.0 0.00 0.00 0.00 1021.1
20260503013415 -17 0.0 0.0 0.00 0.00 0.00 1021.2
20260503013318 -17 0.0 0.0 0.00 0.00 0.00 1021.2
20260503013225 -17 0.0 0.0 0.00 0.00 0.00 1021.2
20260503013130 -17 0.0 0.0 0.00 0.00 0.00 1021.2
20260503013014 -17 0.0 0.0 0.00 0.00 0.00 1021.3
20260503012917 -17 0.0 0.0 0.00 0.00 0.00 1021.2
20260503012821 -17 0.0 0.0 0.00 0.00 0.00 1021.2
20260503012726 -17 0.0 0.0 0.00 0.00 0.00 1021.2
20260503012645 -17 0.0 0.0 0.00 0.00 0.00 1021.2
20260503012532 -17 0.0 0.0 0.00 0.00 0.00 1021.1
20260503012415 -17 0.0 0.0 0.00 0.00 0.00 1021.1
20260503012320 -17 0.0 0.0 0.00 0.00 0.00 1021.2
20260503012224 -17 0.0 0.0 0.00 0.00 0.00 1021.2
20260503012127 -17 0.0 0.0 0.00 0.00 0.00 1021.1
20260503012014 -17 0.0 0.0 0.00 0.00 0.00 1021.0
20260503011919 -17 0.0 0.0 0.00 0.00 0.00 1021.1
20260503011823 -17 0.0 0.0 0.00 0.00 0.00 1021.1
20260503011727 -17 0.0 0.0 0.00 0.00 0.00 1021.0
20260503011630 -17 0.0 0.0 0.00 0.00 0.00 1020.9
20260503011528 -17 0.0 0.0 0.00 0.00 0.00 1020.9
20260503011415 -17 0.0 0.0 0.00 0.00 0.00 1020.8
20260503011339 -17 0.0 0.0 0.00 0.00 0.00 1020.8
20260503011214 -17 0.0 0.0 0.00 0.00 0.00 1020.8
20260503011117 -17 0.0 0.0 0.00 0.00 0.00 1020.8
20260503011020 -17 0.0 0.0 0.00 0.00 0.00 1020.8
20260503010923 -17 0.0 0.0 0.00 0.00 0.00 1020.8
20260503010827 -17 0.0 0.0 0.00 0.00 0.00 1020.8
20260503010736 -17 0.0 0.0 0.00 0.00 0.00 1020.9
20260503010638 -17 0.0 0.0 0.00 0.00 0.00 1020.9
20260503010521 -17 0.0 0.0 0.00 0.00 0.00 1020.9
20260503010425 -17 0.0 0.0 0.00 0.00 0.00 1020.9
20260503010328 -17 0.0 0.0 0.00 0.00 0.00 1020.9
20260503010252 -17 0.0 0.0 0.00 0.00 0.00 1020.9
20260503010114 -17 0.0 0.0 0.00 0.00 0.00 1020.9
20260503010021 -17 0.0 0.0 0.00 0.00 0.00 1020.9
20260503005926 -17 0.0 0.0 0.00 0.00 0.00 1020.9
20260503005824 -17 0.0 0.0 0.00 0.00 0.00 1020.9
20260503005728 -17 0.0 0.0 0.00 0.00 0.00 1020.9
20260503005630 -17 0.0 0.0 0.00 0.00 0.00 1020.9
20260503005514 -17 0.0 0.0 0.00 0.00 0.00 1020.9
20260503005422 -17 0.0 0.0 0.00 0.00 0.00 1020.9
20260503005345 -17 0.0 0.0 0.00 0.00 0.00 1020.9
20260503005227 -17 0.0 0.0 0.00 0.00 0.00 1020.9
20260503005151 -17 0.0 0.0 0.00 0.00 0.00 1020.9
20260503005013 -17 0.0 0.0 0.00 0.00 0.00 1020.8
20260503004916 -17 0.0 0.0 0.00 0.00 0.00 1020.8
20260503004821 -17 0.0 0.0 0.00 0.00 0.00 1020.9
20260503004727 -17 0.0 0.0 0.00 0.00 0.00 1020.9
20260503004631 -17 0.0 0.0 0.00 0.00 0.00 1020.8
20260503004514 -17 0.0 0.0 0.00 0.00 0.00 1020.8
20260503004417 -17 0.0 0.0 0.00 0.00 0.00 1020.8
20260503004321 -17 0.0 0.0 0.00 0.00 0.00 1020.9
20260503004224 -17 0.0 0.0 0.00 0.00 0.00 1020.9
20260503004132 -17 0.0 0.0 0.00 0.00 0.00 1020.8
20260503004028 -17 0.0 0.0 0.00 0.00 0.00 1020.8
20260503003931 -17 0.0 0.0 0.00 0.00 0.00 1020.8
20260503003814 -17 0.0 0.0 0.00 0.00 0.00 1020.8
20260503003718 -17 0.0 0.0 0.00 0.00 0.00 1020.8
20260503003621 -17 0.0 0.0 0.00 0.00 0.00 1020.6
20260503003529 -17 0.0 0.0 0.00 0.00 0.00 1020.6
20260503003432 -17 0.0 0.0 0.00 0.00 0.00 1020.7
20260503003335 -17 0.0 0.0 0.00 0.00 0.00 1020.7
20260503003218 -17 0.0 0.0 0.00 0.00 0.00 1020.8
20260503003120 -17 0.0 0.0 0.00 0.00 0.00 1020.7
20260503003039 -17 0.0 0.0 0.00 0.00 0.00 1020.7
20260503002917 -17 0.0 0.0 0.00 0.00 0.00 1020.8
20260503002820 -17 0.0 0.0 0.00 0.00 0.00 1020.7
20260503002748 -17 0.0 0.0 0.00 0.00 0.00 1020.7
20260503002631 -17 0.0 0.0 0.00 0.00 0.00 1020.7
20260503002514 -17 0.0 0.0 0.00 0.00 0.00 1020.7
20260503002418 -17 0.0 0.0 0.00 0.00 0.00 1020.7
20260503002315 -17 0.0 0.0 0.00 0.00 0.00 1020.7
20260503002218 -17 0.0 0.0 0.00 0.00 0.00 1020.7
20260503002126 -17 0.0 0.0 0.00 0.00 0.00 1020.7
20260503002028 -17 0.0 0.0 0.00 0.00 0.00 1020.6
20260503001931 -17 0.0 0.0 0.00 0.00 0.00 1020.7
20260503001815 -17 0.0 0.0 0.00 0.00 0.00 1020.6
20260503001718 -17 0.0 0.0 0.00 0.00 0.00 1020.7
20260503001622 -17 0.0 0.0 0.00 0.00 0.00 1020.6
20260503001525 -17 0.0 0.0 0.00 0.00 0.00 1020.6
20260503001453 -17 0.0 0.0 0.00 0.00 0.00 1020.7
20260503001335 -17 0.0 0.0 0.00 0.00 0.00 1020.6
20260503001217 -17 0.0 0.0 0.00 0.00 0.00 1020.6
20260503001121 -17 0.0 0.0 0.00 0.00 0.00 1020.6
20260503001045 -17 0.0 0.0 0.00 0.00 0.00 1020.6
20260503000947 -17 0.0 0.0 0.00 0.00 0.00 1020.6
20260503000829 -17 0.0 0.0 0.00 0.00 0.00 1020.7
20260503000732 -17 0.0 0.0 0.00 0.00 0.00 1020.6
20260503000639 -17 0.0 0.0 0.00 0.00 0.00 1020.7
20260503000516 -17 0.0 0.0 0.00 0.00 0.00 1020.7
20260503000422 -17 0.0 0.0 0.00 0.00 0.00 1020.6
20260503000325 -17 0.0 0.0 0.00 0.00 0.00 1020.6
20260503000226 -17 0.0 0.0 0.00 0.00 0.00 1020.6
20260503000130 -17 0.0 0.0 0.00 0.00 0.00 1020.6
20260503000016 -17 0.0 0.0 0.00 0.00 0.00 1020.7
20260502235920 -17 0.0 0.0 0.00 0.00 0.00 1020.6
20260502235824 -17 0.0 0.0 0.00 0.00 0.00 1020.6
20260502235747 -17 0.0 0.0 0.00 0.00 0.00 1020.6
20260502235629 -17 0.0 0.0 0.00 0.00 0.00 1020.6
20260502235531 -17 0.0 0.0 0.00 0.00 0.00 1020.6
20260502235414 -17 0.0 0.0 0.00 0.00 0.00 1020.6
20260502235322 -17 0.0 0.0 0.00 0.00 0.00 1020.6
20260502235225 -17 0.0 0.0 0.00 0.00 0.00 1020.6
20260502235128 -17 0.0 0.0 0.00 0.00 0.00 1020.6
20260502235051 -17 0.0 0.0 0.00 0.00 0.00 1020.6
20260502234914 -17 0.0 0.0 0.00 0.00 0.00 1020.6
20260502234818 -17 0.0 0.0 0.00 0.00 0.00 1020.6
20260502234720 -17 0.0 0.0 0.00 0.00 0.00 1020.6
20260502234627 -17 0.0 0.0 0.00 0.00 0.00 1020.6
20260502234531 -17 0.0 0.0 0.00 0.00 0.00 1020.6
20260502234434 -17 0.0 0.0 0.00 0.00 0.00 1020.6
20260502234337 -17 0.0 0.0 0.00 0.00 0.00 1020.6
20260502234213 -17 0.0 0.0 0.00 0.00 0.00 1020.6
20260502234116 -17 0.0 0.0 0.00 0.00 0.00 1020.6
20260502234020 -17 0.0 0.0 0.00 0.00 0.00 1020.6
20260502233927 -17 0.0 0.0 0.00 0.00 0.00 1020.6
20260502233831 -17 0.0 0.0 0.00 0.00 0.00 1020.6
20260502233714 -17 0.0 0.0 0.00 0.00 0.00 1020.6
20260502233639 -17 0.0 0.0 0.00 0.00 0.00 1020.7
20260502233522 -17 0.0 0.0 0.00 0.00 0.00 1020.7
20260502233446 -17 0.0 0.0 0.00 0.00 0.00 1020.7
20260502233223 -17 0.0 0.0 0.00 0.00 0.00 1020.6
20260502233125 -17 0.0 0.0 0.00 0.00 0.00 1020.6
20260502233049 -17 0.0 0.0 0.00 0.00 0.00 1020.6
20260502232932 -17 0.0 0.0 0.00 0.00 0.00 1020.5
20260502232817 -17 0.0 0.0 0.00 0.00 0.00 1020.5
20260502232719 -17 0.0 0.0 0.00 0.00 0.00 1020.5
20260502232643 -17 0.0 0.0 0.00 0.00 0.00 1020.5
20260502232524 -17 0.0 0.0 0.00 0.00 0.00 1020.5
20260502232431 -17 0.0 0.0 0.00 0.00 0.00 1020.4
20260502232334 -17 0.0 0.0 0.00 0.00 0.00 1020.5
20260502232216 -17 0.0 0.0 0.00 0.00 0.00 1020.4
20260502232120 -17 0.0 0.0 0.00 0.00 0.00 1020.4
20260502232042 -17 0.0 0.0 0.00 0.00 0.00 1020.4
20260502231925 -17 0.0 0.0 0.00 0.00 0.00 1020.4
20260502231830 -17 0.0 0.0 0.00 0.00 0.00 1020.5
20260502231757 -17 0.0 0.0 0.00 0.00 0.00 1020.5
20260502231721 -17 0.0 0.0 0.00 0.00 0.00 1020.5
20260502231413 -17 0.0 0.0 0.00 0.00 0.00 1020.5
20260502231315 -17 0.0 0.0 0.00 0.00 0.00 1020.5
20260502231219 -17 0.0 0.0 0.00 0.00 0.00 1020.4
20260502231123 -17 0.0 0.0 0.00 0.00 0.00 1020.4
20260502231027 -17 0.0 0.0 0.00 0.00 0.00 1020.5
20260502230914 -17 0.0 0.0 0.00 0.00 0.00 1020.6
20260502230838 -17 0.0 0.0 0.00 0.00 0.00 1020.6